Location: Chiroubles
(46.1812°N, 4.6660°E)
Time: 18:47:57
(UTC+00:00)

Cosmos 2219 - Pass Details

Date: 15 August 2020
Orbit: 834 x 860 km, 71.1° (Epoch: 24 September)

Event Time Altitude Azimuth Distance (km) Brightness Sun altitude
Exits shadow 22:46:07 28° 71° (ENE) 1,515 4.5 -28.7°
Drops below altitude 10° 22:49:23 10° 42° (NE) 2,452 6.0 -28.8°
Sets 22:52:00 0° 34° (NE) 3,392 6.9 -28.9°
